Paso Robles, CA

1:55 PM PST on December 07, 2019 (GMT -0800)
Paso Robles Municipal

Weather History for KPRB - October, 2019

Change the Weather History Date:

Wednesday, October 16, 2019

  Actual Average Record
Temperature  
Mean Temperature 62 °F 62 °F  
Max Temperature 84 °F 79 °F 99 °F (1961)
Min Temperature 40 °F 44 °F 31 °F (1981)
Degree Days  
Heating Degree Days 2 4  
Month to date heating degree days 65 48  
Since 1 July heating degree days 91 80  
Cooling Degree Days 0 1  
Month to date cooling degree days 11 30  
Year to date cooling degree days 1046 921  
Growing Degree Days 12 (Base 50)    
Moisture  
Dew Point 38 °F    
Average Humidity 50    
Maximum Humidity 73    
Minimum Humidity 19    
Precipitation  
Precipitation 0.00 in 0.02 in 0.24 in (2004)
Month to date precipitation 0.00 0.23  
Year to date precipitation 11.28 9.35  
Sea Level Pressure  
Sea Level Pressure 29.94 in    
Wind  
Wind Speed 3 mph ()    
Max Wind Speed 16 mph    
Max Gust Speed 22 mph    
Visibility 10.0 miles    
Events      
T = Trace of Precipitation, MM = Missing Value Source: Averaged Metar Reports

Daily Weather History Graph

Daily Weather History Graph

Search for Another Location

Airport or City:

Astronomy

Oct. 16, 2019 Rise Set
Actual Time 7:09 AM PDT 6:25 PM PDT
Civil Twilight 6:44 AM PDT 6:51 PM PDT
Nautical Twilight 6:14 AM PDT 7:21 PM PDT
Astronomical Twilight 5:44 AM PDT 7:50 PM PDT
Moon 8:27 PM PDT (10/16) 9:41 AM PDT (10/16)
Length of Visible Light 12h 07m
Length of Day
11h 16m
Waning Gibbous, 92% of the Moon is Illuminated
Oct 16
Waning Gibbous
Oct 21
Last Quarter
Oct 27
New
Nov 4
First Quarter
Nov 12
Full

Hourly Weather History & Observations

Time (PDT) Temp. Windchill Dew Point Humidity Pressure Visibility Wind Dir Wind Speed Gust Speed Precip Events Conditions
12:53 AM 50.0 °F - 36.0 °F 59% 30.02 in 10.0 mi Calm Calm - N/A   Clear
1:53 AM 48.9 °F - 36.0 °F 61% 30.03 in 10.0 mi Calm Calm - N/A   Clear
2:53 AM 46.0 °F 43.9 °F 36.0 °F 68% 30.02 in 10.0 mi ENE 4.6 mph - N/A   Clear
3:53 AM 44.1 °F - 32.0 °F 63% 30.00 in 10.0 mi Calm Calm - N/A   Clear
4:53 AM 42.1 °F 40.2 °F 30.9 °F 65% 30.00 in 10.0 mi East 3.5 mph - N/A   Clear
5:53 AM 42.1 °F - 32.0 °F 67% 30.00 in 10.0 mi Calm Calm - N/A   Clear
6:53 AM 41.0 °F - 33.1 °F 73% 30.01 in 10.0 mi Calm Calm - N/A   Clear
7:53 AM 44.1 °F - 33.1 °F 65% 30.02 in 10.0 mi Calm Calm - N/A   Clear
8:53 AM 48.9 °F - 36.0 °F 61% 30.01 in 10.0 mi SW 4.6 mph - N/A   Clear
9:53 AM 55.9 °F - 37.9 °F 51% 30.01 in 10.0 mi Calm Calm - N/A   Clear
10:53 AM 61.0 °F - 37.0 °F 41% 29.99 in 10.0 mi WSW 3.5 mph - N/A   Clear
11:53 AM 70.0 °F - 37.9 °F 31% 29.96 in 10.0 mi Variable 3.5 mph - N/A   Clear
12:53 PM 73.9 °F - 37.9 °F 27% 29.93 in 10.0 mi Calm Calm - N/A   Clear
1:53 PM 79.0 °F - 37.0 °F 22% 29.88 in 10.0 mi Calm Calm - N/A   Clear
2:53 PM 82.9 °F - 37.0 °F 19% 29.86 in 10.0 mi NW 5.8 mph - N/A   Clear
3:53 PM 84.0 °F - 37.9 °F 19% 29.85 in 10.0 mi SW 4.6 mph - N/A   Clear
4:53 PM 82.9 °F - 42.1 °F 24% 29.83 in 10.0 mi South 6.9 mph - N/A   Clear
5:53 PM 77.0 °F - 42.1 °F 29% 29.83 in 10.0 mi South 6.9 mph - N/A   Clear
6:53 PM 69.1 °F - 42.1 °F 38% 29.85 in 10.0 mi West 10.4 mph - N/A   Clear
7:53 PM 64.9 °F - 42.1 °F 43% 29.87 in 10.0 mi WNW 11.5 mph - N/A   Clear
8:53 PM 61.0 °F - 46.0 °F 58% 29.88 in 10.0 mi WNW 12.7 mph - N/A   Clear
9:53 PM 57.9 °F - 45.0 °F 62% 29.88 in 10.0 mi WNW 12.7 mph - N/A   Clear
10:53 PM 55.9 °F - 46.9 °F 72% 29.88 in 10.0 mi WNW 9.2 mph - N/A   Clear
11:53 PM 55.9 °F - 46.9 °F 72% 29.87 in 10.0 mi WNW 10.4 mph - N/A   Clear